sat.trackr.live / text

‹ back to catalog

ONEWEB-0399

NORAD 50479 · 2021-132L

PAYLOAD ACTIVE UNKNOWN

§ Identity

Operator
Country
UK
Launch date
2021-12-27
Launch site
TYMSC
Launch vehicle
Mass (kg)
RCS (m²)

Purposes: comms

External: N2YO · Heavens-Above · Gunter

§ Orbital elements

Epoch: 2026-05-25T01:54:40.076064Z

Period
109.80 min
Inclination
87.8917°
Eccentricity
0.0002297
Mean motion
13.11415894 rev/d
Perigee alt
1,215.9 km
Apogee alt
1,219.4 km
Semi-major
7,595.8 km
B*
-1.4937e-3
RAAN
25.6646°
Arg perigee
84.2599°
Mean anomaly
275.8790°
Rev number
21,257

§ Raw data

ONEWEB-03991 50479U 21132L   26145.07963051 -.00000517  00000+0 -14937-2 0  99932 50479  87.8917  25.6646 0002297  84.2599 275.8790 13.11415894212575

JSON: /api/v1/satellites/50479 · /tle

For live sub-satellite position, see the globe view (requires WebGL).

§ Visibility from observer

Set your observer location to see the next 7 days of passes ≥ 10°. The values pass through the URL so the page stays shareable.

No JS? Fill the form by hand. The geolocation button needs JavaScript.